Regional Weather Roundup
Issued by NWS

Home | Current Version | Previous Version | Graphics & Text | Print | Product List | Glossary On
Versions: 1 2 3 4 5 6 7 8 9 10 11 12 13 14 15 16 17 18 19 20 21 22 23 24 25 26 27 28 29 30 31 32 33 34 35 36 37 38 39 40 41 42 43 44 45 46 47 48 49 50
000
ASUS43 KBIS 200620
RWRND

NORTH DAKOTA REGIONAL WEATHER ROUNDUP
NATIONAL WEATHER SERVICE BISMARCK ND
100 AM CDT SAT SEP 20 2014

NOTE: "FAIR" INDICATES FEW OR NO CLOUDS BELOW 12,000 FEET WITH NO
SIGNIFICANT WEATHER AND/OR OBSTRUCTIONS TO VISIBILITY.


NDZ001>003-009>011-017-200700-
NORTHWEST NORTH DAKOTA

CITY           SKY/WX    TMP DP  RH WIND       PRES   REMARKS
WILLISTON      CLEAR     51  47  86 NW3       29.85R
6HR MIN TEMP:  50; 6HR MAX TEMP:  72;

MINOT          CLEAR     55  52  89 SW7       29.79S
MINOT AFB      LGT RAIN  66  61  82 N18G32    29.65R
$$

NDZ018>021-031>035-040>046-200700-
SOUTHWEST NORTH DAKOTA

CITY           SKY/WX    TMP DP  RH WIND       PRES   REMARKS
BISMARCK       CLEAR     59  52  77 NW5       29.83R
6HR MIN TEMP:  59; 6HR MAX TEMP:  77;

DICKINSON      CLEAR     53  46  77 W6        29.86S
GARRISON         N/A     53  51  93 W7        29.81S
6HR MIN TEMP:  52; 6HR MAX TEMP:  74;

HETTINGER ARPT CLEAR     52  47  83 NW8       29.91R
$$

NDZ004>008-012>016-024-026-027-054-200700-
NORTHEAST NORTH DAKOTA

CITY           SKY/WX    TMP DP  RH WIND       PRES   REMARKS
GRAND FORKS    CLOUDY    60  54  80 NW12      29.71R
GRND FRKS AFB  PTCLDY    57  55  91 N9        29.73R
DEVILS LAKE    CLEAR     55  48  76 W7        29.76R
$$

NDZ022-023-025-028>030-036>039-047>053-200700-
SOUTHEAST NORTH DAKOTA

CITY           SKY/WX    TMP DP  RH WIND       PRES   REMARKS
FARGO          PTCLDY    61  56  83 NW12      29.70R
6HR MIN TEMP:  61; 6HR MAX TEMP:  78;

JAMESTOWN      CLEAR     59  56  89 NW8       29.77R
$$



USA.gov is the U.S. government's official web portal to all federal, state and local government web resources and services.